ZHONGXING-6D

Last updated on Tue Sep 22 2026 00:03:15 GMT+0000 (Coordinated Universal Time)

1 52255U 22038A 26263.65421424 .00000000 00000+0 00000+0 0 9999 2 52255 0.0343 189.9160 0002514 35.2282 134.8354 1.00272871 16383
UTC large
Height (km)
Speed (km/s)
/
Latitude / Longitude
Inclination (degrees)
Orbital Period (minutes)
Azimuth
Elevation
Range (km)
Doppler Factor

Next 0 passes for location: London (51.5072 / 0.1276)

No passes found over London.
ZHONGXING-6D